Location: North Evanston
(42.0634°N, 87.6976°W)
Time: 14:48:32
(UTC+00:00)

Vanguard 2 - Pass Details

Date: 13 May 2026
Orbit: 553 x 2894 km, 32.9° (Epoch: 8 June)

Event Time Altitude Azimuth Distance (km) Brightness Sun altitude
Rises 12:10:41 0° 271° (W) 6,600 11.7 16.5°
Reaches altitude 10° 12:15:34 10° 267° (W) 5,398 11.3 17.4°
Maximum altitude 12:29:48 49° 199° (SSW) 2,474 10.2 20.0°
Drops below altitude 10° 12:39:02 10° 129° (SE) 3,574 11.7 21.7°
Sets 12:41:36 0° 123° (ESE) 4,278 12.2 22.2°
